Regional Weather Roundup
Issued by NWS Newport/Morehead, NC

Current Version | Previous Version | Graphics & Text | Print | Product List | Glossary Off
Versions: 1 2 3 4 5 6 7 8 9 10 11 12 13 14 15 16 17 18 19 20 21 22 23 24 25 26 27 28 29 30 31 32 33 34 35 36 37 38 39 40 41 42 43 44 45 46 47 48 49 50

000
ASUS42 KMHX 222325
RWRMHX
WEATHER ROUNDUP FOR EASTERN NORTH CAROLINA
NATIONAL WEATHER SERVICE NEWPORT/MOREHEAD CITY NC
700 PM EDT FRI JUL 22 2016

NOTE: "FAIR" INDICATES FEW OR NO CLOUDS BELOW 12,000 FEET
WITH NO SIGNIFICANT WEATHER AND/OR OBSTRUCTIONS TO VISIBILITY

NCZ015>017-031-032-045>047-102-103-230000-
NORTH COAST

CITY           SKY/WX    TMP DP  RH WIND       PRES   REMARKS
EDENTON        SUNNY     88  72  58 S13       29.98F
ELIZABETH CITY SUNNY     87  72  60 S10       29.97F
KITTY HAWK     CLEAR     87  68  52 S6        29.98F
MANTEO           N/A     85  69  58 SW16      29.99F

$$

NCZ045>047-081-094-103-104-230000-
CENTRAL COAST

CITY           SKY/WX    TMP DP  RH WIND       PRES   REMARKS
FRISCO         SUNNY     84  70  62 SW9       30.01F

$$

NCZ095-097-098-100-101-230000-
SOUTHERN COAST

CITY           SKY/WX    TMP DP  RH WIND       PRES   REMARKS
BEAUFORT       SUNNY     84  69  60 S9        30.01F
CEDAR ISLAND   NOT AVBL
JACKSONVILLE   SUNNY     85  69  58 S9        30.00F
PINEY ISLAND   PTCLDY   N/A N/A N/A S8        30.01
WILMINGTON     SUNNY     86  69  56 S9        30.01F


$$

NCZ011>013-027>030-043-044-078>080-089-090>093-098-230000-
COASTAL PLAIN

CITY           SKY/WX    TMP DP  RH WIND       PRES   REMARKS
AHOSKIE        SUNNY     85  76  74 S3        29.97S
CLINTON        SUNNY     88  74  65 CALM      29.99F
ELIZABETHTOWN  SUNNY     89  72  56 S3        29.99S
GOLDSBORO      SUNNY     90  72  55 S6        29.97F
GREENVILLE     SUNNY     88  72  58 SW8       30.00S
HAVELOCK       SUNNY     84  69  60 S10       30.02F
KENANSVILLE    MOSUNNY   85  70  59 CALM      30.00S
KINSTON        MOSUNNY   88  72  58 S7        29.99F
NEW BERN       SUNNY     85  69  58 S9        30.02S
RICHLANDS      SUNNY     86  72  62 S8        30.01S
ROCKY MOUNT    SUNNY     88  73  61 S8        29.98F
WASHINGTON     SUNNY     87  71  58 S9        29.99S
WHITEVILLE     SUNNY     87  73  62 S5        30.00S

$$

AMZ130-135-150-152-154-156-158-170-250-252-270-ANZ085-086-088-633-658-670-230000-
MARINE OBSERVATIONS

STATION/POSITION TIME  TEMP    WIND        PRES    WAVE   SWELL
                       AIR SEA DIR/SP/G            HT/PER HT/PER
                 (UTC) (F)     (DEG/KT/KT) (MB)    (FT/S) (FT/S)
CHESAPEAKE LIGHT NOT AVBL
64 E VA BEACH    2250   82 81  190/ 16/ 19 1015.0    3/ 9   2/ 9
DUCK             2200      78                N/A
2 E DUCK         2211      82                N/A     2/ 8
OREGON INLET     2200      83                N/A
13E OREGON INLT  2300      82                N/A     2/ 8   2/ 8
HATTERAS CG      2200      83                N/A
DIAMOND BUOY     2250   84 86  200/  8/ 12 1016.5    2/ 9   2/ 9
CAPE LOOKOUT     2300   84     200/  8/  9 1016.2
BEAUFORT LAB     2200      85                N/A
30 SE NEW RVR IN 2308   84 86  190/  6/  8 1016.4
30 SE NEW RVR IN 2225      86                N/A     3/ 8
27 SE WRIGHTSVLE 2308   84 85  200/  4/  6 1016.6
5 SE WRIGHTSVLE  2308   85 85  210/  8/ 12 1017.2
225 S CAPE HAT   2250   83 86   70/  2/  6 1016.9    3/ 9   3/ 9
41 SE CHARLESTON 2250   85 90  160/  4/  6 1016.2    2/ 9   2/ 9

$$




USA.gov is the U.S. government's official web portal to all federal, state and local government web resources and services.